Wind_Speed
113 108 88 71 64 47 32 21 11 1 14 29 39 51 58 71 86 83 80 87 75 83 87 90 91 91 83 77 73 71 70 71 71 73 76 82 88 90 93 95 96 95 96 96 94 92 92
110 114 99 84 70 61 43 30 22 16 9 15 22 30 47 61 73 77 77 80 79 77 83 80 86 89 89 81 75 73 70 69 69 72 72 73 78 85 89 92 94 96 97 99 101 98 95
111 116 114 93 80 70 60 43 32 27 17 17 16 25 32 55 66 73 73 76 78 76 80 75 77 80 86 87 79 74 73 70 70 70 73 74 77 81 83 87 94 96 99 99 100 101 99
125 113 120 108 90 81 65 62 43 37 30 20 22 23 27 42 56 64 72 76 69 72 72 72 68 75 87 84 83 79 77 75 72 72 72 71 74 79 82 87 91 97 98 99 101 101 100
135 117 115 118 102 85 80 71 65 45 41 34 24 25 35 47 54 60 68 69 69 71 63 60 57 63 74 78 80 80 77 77 76 75 74 75 75 78 77 78 81 83 91 91 91 94 92
139 138 115 117 118 103 92 81 74 63 51 43 33 25 30 47 53 57 61 62 58 56 60 56 51 49 63 74 74 74 78 77 78 77 77 78 79 79 79 80 78 75 71 75 78 82 86
132 139 126 113 119 115 99 88 78 70 63 54 45 32 23 35 47 49 47 45 49 49 51 49 46 45 57 63 71 75 75 77 75 76 77 80 84 84 85 82 80 79 78 76 76 80 84
124 132 139 120 117 117 111 97 87 76 68 63 56 47 32 23 34 40 39 42 47 53 49 40 40 44 44 46 49 54 57 60 55 52 49 52 56 58 60 64 69 71 71 72 71 71 72
120 122 130 135 122 115 114 107 94 84 74 65 59 53 46 38 26 28 33 36 38 35 36 33 30 34 34 35 36 38 38 39 41 49 45 50 55 56 58 61 62 61 60 59 58 58 58
109 117 122 130 133 123 111 112 105 92 83 72 62 54 47 42 38 29 20 20 22 24 24 24 24 26 26 30 31 27 29 34 40 44 52 55 52 49 48 48 49 49 48 44 42 43 43
103 110 112 120 125 129 121 110 107 104 92 81 67 61 50 40 35 32 27 20 14 12 10 12 13 15 22 26 28 37 44 47 45 45 43 44 41 41 37 34 32 33 31 29 29 30 33
99 103 106 112 116 121 125 125 107 101 99 94 82 67 56 48 39 31 27 24 19 10 6 10 13 18 28 37 44 50 49 50 44 32 27 27 22 23 22 21 22 19 17 17 19 20 25
95 94 98 104 108 113 117 122 121 107 96 96 93 86 73 57 50 44 35 26 21 14 10 11 16 25 29 36 37 36 29 22 14 13 13 11 11 12 10 8 9 10 10 8 7 8 12
87 92 91 95 103 104 110 113 119 119 107 90 91 91 87 76 65 56 45 41 35 29 22 14 7 3 5 6 8 7 9 7 4 3 2 3 6 8 13 10 11 14 10 8 4 6 5
79 82 89 87 93 99 101 106 108 115 116 107 96 86 84 82 78 73 69 61 49 40 32 27 22 17 14 12 14 13 10 5 7 6 8 12 9 14 12 7 8 11 13 12 12 11 10
70 75 77 85 85 90 93 97 101 106 110 109 106 99 89 78 74 73 74 71 66 63 56 49 45 36 25 22 21 28 31 31 29 30 28 25 22 17 13 11 14 14 14 14 14 16 17
63 68 69 75 80 80 84 89 91 95 99 103 101 107 102 95 80 68 66 67 66 63 61 61 60 55 49 47 46 45 50 52 52 51 48 45 40 36 31 27 23 18 16 15 15 15 18
54 63 62 65 71 74 74 80 84 87 90 92 97 98 104 103 92 80 65 56 54 54 55 55 54 54 53 52 51 49 49 49 48 47 46 46 47 47 46 44 38 33 28 15 14 16 15
49 55 58 58 64 66 67 72 73 82 81 85 87 89 92 94 96 88 82 73 58 48 47 46 46 46 45 45 44 44 45 45 43 41 41 41 41 42 43 43 43 45 41 31 25 21 18
45 50 55 52 58 58 61 63 66 71 75 77 80 81 84 87 90 89 87 87 77 72 57 45 40 39 39 38 38 38 37 36 35 34 35 35 35 35 35 35 36 36 37 37 39 38 32
42 42 50 46 49 51 53 55 58 63 68 69 72 73 75 77 81 82 82 85 83 82 70 62 58 43 34 31 30 30 29 28 27 27 27 27 28 29 29 29 30 30 30 31 31 31 31
38 39 45 49 44 44 47 51 52 55 56 63 65 67 67 69 72 73 76 79 78 81 78 76 70 61 54 43 32 27 25 24 23 22 22 22 22 22 21 23 24 24 24 23 24 24 25
33 39 40 43 46 40 39 44 55 48 48 53 59 61 62 62 62 65 67 71 74 73 75 78 75 73 66 57 50 41 31 26 24 22 23 22 21 22 23 23 22 22 22 22 21 20 20
32 34 36 41 39 43 37 42 46 49 42 45 53 52 53 56 58 59 60 61 65 67 70 73 73 74 75 71 62 51 47 37 30 25 23 23 23 21 21 22 22 23 22 22 24 24 23
37 41 43 39 38 45 40 40 45 45 39 42 46 48 46 48 52 55 56 55 57 60 62 64 70 73 73 72 73 70 59 48 43 33 28 24 22 22 22 22 22 22 21 21 20 19 19
46 43 42 47 42 44 42 39 44 43 40 43 43 42 40 43 46 49 50 50 54 56 57 59 61 64 68 68 71 71 70 54 47 44 38 30 27 23 21 20 21 21 20 20 20 21 21
47 46 45 41 46 36 48 43 44 44 39 40 40 45 38 36 40 43 43 43 48 51 52 53 55 58 60 65 67 65 70 70 62 48 42 40 41 34 28 23 22 21 21 22 23 24 23
53 48 50 50 47 45 46 49 48 43 42 44 38 38 40 35 36 37 40 41 44 47 46 47 47 52 54 56 60 63 65 70 70 58 52 41 36 35 34 29 26 29 26 26 27 27 28
60 62 56 54 44 45 47 49 49 49 45 44 40 42 40 37 34 38 39 42 44 45 45 44 42 45 47 51 54 58 61 63 66 67 55 45 40 34 30 32 35 33 31 28 26 27 27
Wind_Direction
25 21 19 23 26 27 38 43 61 162 213 215 216 212 215 213 218 219 218 222 215 220 223 226 226 225 224 229 231 234 237 238 241 243 244 244 246 247 248 249 249 250 248 248 248 247 248
25 27 24 25 32 32 39 47 58 72 145 190 205 207 206 210 211 213 216 219 219 219 224 226 227 228 224 226 231 234 236 241 243 244 245 245 247 248 249 248 250 251 251 250 249 250 250
26 29 29 29 32 37 42 48 59 67 84 119 159 185 196 201 207 210 213 217 219 219 224 225 226 229 229 227 227 232 236 240 243 246 247 249 249 249 249 250 250 250 251 251 252 252 251
28 29 31 32 34 35 43 48 53 66 74 92 122 150 171 189 199 207 212 214 217 220 222 223 225 226 227 229 229 230 233 236 240 244 247 250 252 252 254 252 252 252 253 253 255 254 256
28 29 32 33 35 41 44 51 51 56 71 75 97 143 156 169 188 198 208 212 214 216 220 221 226 227 229 231 232 234 237 239 243 246 248 251 253 256 258 260 260 259 256 257 257 256 257
27 28 32 34 35 37 41 44 53 55 58 70 82 119 151 161 173 189 197 203 206 212 218 222 222 230 233 234 235 238 240 243 245 248 250 253 256 258 259 260 262 265 265 265 264 258 256
27 30 31 35 35 38 39 41 50 56 57 64 74 83 128 158 167 183 188 189 197 210 215 219 220 228 234 236 239 242 245 248 250 254 257 259 260 265 267 267 267 272 275 270 261 258 256
27 29 30 33 35 37 40 40 43 51 57 59 67 77 86 131 161 173 179 183 192 203 209 212 218 231 234 237 242 244 247 251 257 262 268 274 275 272 270 269 269 266 262 264 264 263 263
27 28 32 32 34 36 39 41 43 45 52 57 60 68 81 93 116 160 173 176 182 187 197 205 209 221 225 236 242 251 262 265 273 268 274 278 274 266 264 263 264 267 270 269 267 267 265
27 27 31 33 33 36 37 40 44 46 46 52 58 63 66 78 86 105 145 149 168 188 190 200 212 223 235 240 248 269 275 285 282 280 272 265 263 265 267 268 270 270 268 267 266 266 266
27 28 29 32 35 35 39 38 42 44 50 48 52 58 65 68 78 89 101 113 138 169 203 217 228 245 258 262 270 273 274 274 274 264 262 269 271 270 270 268 266 265 263 261 265 265 263
26 28 28 31 33 36 37 38 40 42 46 51 53 52 60 65 73 81 86 97 104 126 247 261 255 260 267 267 267 269 270 271 268 271 267 265 266 260 256 258 264 265 271 269 262 262 262
23 28 30 29 32 33 35 37 38 40 44 47 52 56 53 54 66 73 78 86 96 128 168 201 233 252 259 261 265 266 266 261 260 258 252 253 244 250 256 247 240 243 231 225 225 234 250
24 24 30 30 30 32 32 35 36 40 42 46 48 53 55 59 58 60 67 76 80 82 83 87 99 144 197 205 229 243 252 265 267 242 300 275 222 184 183 189 217 202 155 152 158 111 58
22 25 25 30 30 29 32 33 34 34 38 44 47 48 50 53 56 58 62 65 65 71 77 84 88 98 104 94 92 90 91 105 129 148 164 162 180 164 155 162 137 119 98 94 79 74 54
22 25 24 24 31 29 30 31 33 33 34 38 41 45 47 48 50 53 58 59 60 62 67 70 72 71 79 94 100 90 92 95 93 87 81 78 74 77 65 74 80 87 82 88 80 70 54
18 25 24 24 25 28 28 28 31 31 34 33 38 40 44 44 45 47 51 56 56 58 60 61 62 66 69 73 77 77 74 70 69 67 64 62 62 61 59 59 58 59 78 84 79 73 73
16 22 23 24 23 27 27 28 27 28 29 31 31 36 37 39 44 46 45 48 52 54 56 58 60 62 62 63 64 65 66 68 69 70 69 68 68 67 64 62 60 57 52 56 56 68 68
12 17 21 23 22 27 27 27 28 24 26 28 29 29 32 38 40 44 44 43 44 47 49 51 53 54 54 55 57 58 60 59 60 62 60 62 63 62 62 60 58 57 57 57 57 61 65
2 7 11 18 19 21 25 24 25 24 24 22 25 29 28 31 33 38 40 38 41 40 41 41 41 41 43 45 45 47 49 50 50 48 49 49 50 51 53 55 58 58 56 56 55 53 53
355 4 5 11 13 17 18 21 21 19 17 20 19 24 24 25 26 29 34 36 39 38 43 40 37 34 34 37 36 38 38 38 38 38 41 40 38 37 40 43 44 46 48 51 53 53 52
350 355 355 1 2 11 13 14 15 13 18 17 14 18 20 21 25 26 24 28 30 33 37 39 38 35 30 31 26 28 29 28 28 27 27 26 26 30 32 26 26 35 36 38 39 40 41
340 345 348 352 353 359 5 2 1 6 8 13 13 11 14 17 21 25 27 27 25 27 30 33 34 34 35 30 25 25 21 15 15 14 12 10 12 13 13 13 13 15 12 15 18 21 26
321 320 331 335 344 346 351 353 354 358 1 4 5 9 11 13 14 17 22 24 25 25 25 26 26 28 29 30 28 26 20 17 13 5 1 1 3 5 7 6 6 3 5 9 11 9 5
307 314 318 325 327 332 337 338 339 348 352 353 359 3 4 8 11 10 12 16 20 21 21 23 21 21 22 21 23 23 27 20 13 12 5 356 351 349 351 355 358 360 358 358 357 356 358
299 309 311 315 316 321 326 326 331 339 341 342 341 357 358 359 3 5 6 8 11 14 15 17 19 20 19 18 16 16 20 19 21 13 4 2 357 345 339 345 347 346 345 347 347 347 342
295 302 299 303 309 310 319 318 323 327 336 335 333 344 351 352 354 357 0 2 1 5 8 10 12 14 16 16 16 13 10 14 15 14 14 6 2 359 352 345 335 329 327 330 334 335 336
291 292 291 298 301 303 308 313 314 313 319 323 323 333 340 341 343 347 351 351 352 354 359 4 7 8 11 14 12 11 8 6 11 9 7 8 7 10 10 9 350 342 346 338 330 327 323
284 287 290 295 293 294 298 305 303 307 308 314 316 321 326 330 330 336 337 338 339 342 346 354 1 3 4 5 7 7 6 5 4 4 4 4 7 7 8 3 1 360 355 347 335 330 324
Height
10496 10466 10436 10409 10388 10369 10356 10352 10349 10350 10354 10359 10368 10384 10402 10425 10446 10464 10482 10497 10518 10530 10543 10556 10573 10587 10598 10608 10620 10628 10634 10640 10646 10651 10656 10662 10668 10673 10678 10681 10686 10690 10693 10697 10701 10705 10709
10506 10478 10445 10419 10396 10377 10361 10354 10351 10349 10352 10357 10367 10380 10394 10418 10435 10455 10474 10492 10507 10523 10532 10550 10564 10575 10590 10600 10611 10618 10625 10631 10636 10641 10645 10649 10654 10660 10664 10666 10670 10674 10677 10680 10682 10691 10698
10517 10486 10461 10433 10409 10389 10374 10362 10356 10354 10354 10358 10366 10377 10391 10412 10430 10448 10469 10485 10498 10516 10524 10539 10551 10572 10584 10594 10601 10609 10616 10621 10627 10632 10636 10640 10644 10646 10649 10652 10654 10658 10659 10660 10666 10673 10679
10528 10498 10471 10449 10422 10402 10386 10373 10366 10362 10362 10366 10371 10379 10393 10410 10430 10448 10465 10479 10497 10509 10517 10532 10550 10565 10575 10583 10592 10599 10605 10612 10617 10621 10625 10628 10632 10634 10635 10637 10639 10641 10643 10647 10651 10654 10661
10543 10514 10488 10465 10440 10421 10402 10386 10379 10375 10373 10375 10380 10387 10389 10403 10426 10445 10459 10476 10489 10504 10516 10533 10548 10556 10566 10576 10586 10594 10601 10606 10610 10613 10617 10619 10619 10621 10623 10626 10628 10631 10632 10630 10631 10637 10640
10562 10534 10508 10482 10458 10437 10421 10409 10397 10389 10387 10386 10390 10396 10404 10411 10425 10439 10454 10471 10491 10509 10517 10527 10541 10552 10562 10572 10580 10587 10592 10596 10600 10604 10607 10608 10609 10610 10611 10611 10613 10614 10613 10613 10613 10616 10612
10580 10554 10529 10505 10483 10460 10444 10429 10416 10406 10404 10401 10403 10408 10414 10421 10433 10446 10463 10478 10494 10508 10516 10526 10538 10550 10559 10566 10574 10581 10585 10590 10593 10596 10598 10599 10600 10599 10598 10599 10599 10600 10598 10595 10593 10591 10588
10597 10576 10551 10528 10507 10486 10467 10452 10438 10429 10422 10420 10419 10422 10428 10436 10444 10452 10464 10478 10491 10503 10514 10526 10537 10546 10554 10561 10567 10573 10578 10583 10586 10588 10588 10587 10585 10585 10583 10581 10582 10580 10577 10573 10570 10572 10571
10616 10593 10574 10553 10530 10509 10494 10477 10464 10451 10444 10438 10437 10438 10441 10447 10456 10464 10474 10485 10497 10509 10518 10528 10536 10544 10550 10557 10562 10566 10570 10573 10577 10578 10577 10576 10573 10571 10568 10565 10567 10564 10561 10560 10559 10557 10557
10634 10616 10595 10577 10559 10537 10518 10502 10489 10478 10465 10461 10457 10457 10457 10458 10465 10472 10482 10491 10500 10509 10520 10528 10536 10543 10548 10553 10558 10560 10564 10566 10568 10567 10567 10562 10558 10560 10558 10558 10555 10552 10549 10549 10549 10547 10547
10650 10635 10618 10600 10583 10566 10548 10532 10516 10504 10494 10484 10478 10477 10476 10477 10479 10481 10489 10496 10505 10513 10523 10531 10536 10542 10546 10550 10555 10556 10557 10558 10557 10557 10557 10552 10551 10550 10547 10546 10546 10545 10543 10543 10542 10539 10536
10664 10652 10637 10622 10606 10592 10574 10560 10545 10532 10521 10510 10502 10499 10498 10497 10496 10497 10500 10505 10511 10519 10525 10532 10537 10541 10545 10549 10550 10550 10551 10551 10550 10549 10547 10544 10545 10544 10543 10543 10540 10538 10536 10534 10532 10530 10528
10679 10666 10655 10642 10628 10614 10601 10587 10575 10559 10547 10537 10526 10518 10517 10517 10513 10513 10514 10517 10522 10526 10529 10535 10538 10541 10544 10547 10548 10548 10549 10545 10545 10544 10543 10542 10540 10540 10539 10537 10535 10534 10533 10532 10529 10527 10523
10691 10679 10670 10660 10647 10635 10622 10610 10599 10588 10576 10564 10555 10546 10542 10538 10536 10532 10530 10529 10532 10534 10537 10540 10543 10545 10547 10548 10547 10546 10544 10543 10543 10543 10542 10540 10538 10538 10537 10535 10533 10532 10531 10529 10524 10523 10520
10702 10691 10681 10672 10664 10652 10639 10629 10618 10608 10598 10590 10581 10573 10566 10561 10557 10553 10548 10545 10546 10547 10546 10547 10548 10548 10548 10548 10548 10547 10547 10547 10546 10546 10545 10544 10541 10539 10536 10534 10534 10531 10529 10528 10524 10522 10519
10713 10703 10694 10684 10676 10669 10658 10648 10637 10628 10618 10609 10599 10592 10585 10581 10578 10575 10569 10565 10565 10563 10563 10562 10560 10560 10559 10559 10560 10558 10556 10554 10552 10550 10548 10546 10544 10541 10540 10538 10535 10533 10531 10529 10526 10523 10520
10721 10714 10705 10696 10687 10682 10674 10666 10656 10647 10638 10628 10620 10611 10606 10600 10595 10592 10588 10584 10583 10582 10580 10577 10574 10575 10574 10571 10569 10566 10561 10558 10556 10555 10553 10550 10548 10546 10543 10541 10540 10538 10534 10531 10528 10525 10521
10728 10723 10716 10707 10700 10692 10686 10679 10670 10663 10655 10647 10638 10631 10625 10617 10612 10608 10605 10603 10601 10597 10594 10592 10591 10589 10586 10583 10579 10577 10573 10570 10568 10567 10565 10562 10559 10556 10553 10549 10545 10541 10538 10536 10531 10527 10524
10736 10728 10724 10717 10710 10702 10695 10690 10683 10676 10669 10662 10655 10649 10642 10637 10629 10626 10622 10618 10614 10611 10607 10603 10601 10599 10597 10594 10591 10587 10583 10581 10579 10577 10574 10571 10568 10564 10561 10557 10553 10549 10547 10543 10540 10535 10531
10738 10734 10729 10724 10718 10710 10704 10698 10694 10688 10681 10674 10668 10665 10658 10651 10644 10639 10634 10629 10624 10620 10615 10613 10610 10608 10604 10601 10599 10596 10594 10590 10587 10585 10581 10577 10574 10571 10567 10565 10561 10559 10555 10551 10547 10544 10539
10740 10735 10733 10729 10725 10719 10712 10706 10702 10697 10692 10686 10680 10673 10669 10663 10656 10652 10645 10639 10634 10630 10626 10623 10620 10616 10613 10610 10607 10604 10601 10599 10596 10593 10588 10584 10580 10576 10573 10570 10567 10565 10562 10557 10553 10550 10547
10742 10737 10733 10732 10729 10723 10720 10713 10709 10703 10699 10695 10689 10683 10677 10672 10666 10661 10656 10650 10645 10641 10637 10633 10628 10623 10619 10615 10612 10609 10606 10603 10600 10596 10592 10589 10587 10583 10578 10573 10569 10567 10564 10562 10558 10555 10552
10744 10739 10735 10731 10730 10727 10724 10719 10715 10710 10704 10700 10696 10691 10687 10682 10677 10672 10666 10660 10655 10650 10646 10639 10634 10631 10627 10623 10617 10612 10609 10606 10603 10598 10595 10591 10587 10583 10580 10577 10574 10570 10566 10561 10558 10554 10551
10739 10737 10734 10731 10727 10726 10724 10721 10717 10714 10708 10705 10701 10696 10692 10688 10683 10679 10674 10668 10663 10657 10652 10646 10640 10635 10629 10627 10623 10619 10614 10608 10604 10599 10596 10593 10590 10586 10583 10579 10575 10572 10568 10564 10560 10556 10553
10732 10733 10731 10729 10726 10723 10721 10719 10717 10715 10711 10707 10703 10700 10695 10692 10687 10683 10678 10673 10669 10663 10658 10653 10646 10639 10633 10627 10625 10621 10617 10612 10606 10601 10596 10592 10589 10587 10583 10580 10576 10572 10568 10565 10561 10557 10553
10726 10725 10724 10723 10722 10720 10718 10715 10712 10712 10710 10706 10702 10700 10696 10693 10689 10684 10681 10676 10671 10665 10661 10656 10651 10645 10638 10632 10626 10620 10619 10614 10609 10603 10596 10592 10588 10584 10581 10578 10574 10571 10568 10564 10560 10557 10553
10717 10716 10716 10715 10715 10713 10711 10711 10708 10705 10705 10703 10699 10697 10694 10692 10689 10686 10681 10677 10673 10669 10663 10658 10653 10649 10643 10638 10631 10623 10617 10614 10608 10604 10599 10593 10587 10583 10578 10575 10572 10568 10565 10562 10560 10557 10553
10707 10708 10706 10706 10706 10706 10704 10703 10702 10701 10698 10698 10696 10692 10690 10688 10687 10684 10681 10677 10672 10669 10666 10661 10656 10650 10646 10641 10636 10630 10620 10611 10609 10603 10598 10595 10589 10584 10579 10575 10570 10565 10563 10558 10555 10552 10549
10694 10695 10696 10694 10695 10696 10695 10695 10694 10692 10691 10690 10689 10686 10684 10683 10681 10679 10676 10674 10671 10666 10662 10658 10654 10650 10645 10641 10637 10632 10626 10617 10609 10605 10597 10590 10586 10583 10579 10575 10570 10564 10559 10556 10550 10546 10542